GW5966 Weather Reports


time (UTC)temp
C
wind
direction
speed
KPH
gust
KPH
rain 1hr
cm
rain 24hr
cm
rain mn
cm
humidity
%
barometer
mb
20260504191526 27 129 1.6 6.4 0.00 0.00 0.00 40 1011.4
20260504190007 27 129 1.6 8.0 0.00 0.00 0.00 41 1011.6
20260504184514 27 129 1.6 4.8 0.00 0.00 0.00 43 1011.6
20260504183015 27 10 1.6 4.8 0.00 0.00 0.00 47 1011.8
20260504181522 27 352 0.0 3.2 0.00 0.00 0.00 45 1012.0
20260504180026 26 352 0.0 3.2 0.00 0.00 0.00 45 1012.3
20260504174509 26 352 0.0 3.2 0.00 0.00 0.00 45 1012.6
20260504173010 25 352 3.2 8.0 0.00 0.00 0.00 43 1012.8
20260504171516 25 352 3.2 6.4 0.00 0.00 0.00 44 1013.0
20260504081507 7 352 0.0 0.0 0.00 0.00 0.00 93 1013.8
20260504050020 8 352 0.0 0.0 0.00 0.00 0.00 90 1015.1
20260504044518 9 352 0.0 0.0 0.00 0.00 0.00 91 1015.0
20260504043023 9 352 0.0 0.0 0.00 0.00 0.00 90 1015.3
20260504041512 9 352 0.0 0.0 0.00 0.00 0.00 90 1015.4
20260504040018 10 352 0.0 0.0 0.00 0.00 0.00 89 1015.5
20260504034521 10 352 0.0 0.0 0.00 0.00 0.00 89 1015.5
20260504033020 10 352 0.0 0.0 0.00 0.00 0.00 88 1015.4
20260504031526 10 352 0.0 0.0 0.00 0.00 0.00 87 1015.5
20260504030011 10 352 0.0 0.0 0.00 0.00 0.00 86 1015.5
20260504024518 11 352 0.0 0.0 0.00 0.00 0.00 85 1015.4
20260504023020 11 352 0.0 0.0 0.00 0.00 0.00 84 1015.3
20260504021504 11 352 0.0 0.0 0.00 0.00 0.00 84 1015.2
20260504020008 12 352 0.0 0.0 0.00 0.00 0.00 82 1015.0
20260504014513 12 352 0.0 0.0 0.00 0.00 0.00 81 1014.9
20260504013024 13 352 0.0 0.0 0.00 0.00 0.00 79 1014.6
20260504011520 13 352 0.0 0.0 0.00 0.00 0.00 75 1014.7
20260504010003 14 352 0.0 0.0 0.00 0.00 0.00 72 1014.6
20260504004510 15 352 0.0 0.0 0.00 0.00 0.00 69 1014.5
20260504003012 16 352 0.0 0.0 0.00 0.00 0.00 68 1014.4
20260504001518 16 352 0.0 0.0 0.00 0.00 0.00 63 1014.4
20260504000049 17 352 0.0 0.0 0.00 0.00 0.00 58 1014.5
20260503234526 17 352 0.0 0.0 0.00 0.00 0.00 55 1014.5
20260503233011 18 352 0.0 0.0 0.00 0.00 0.00 53 1014.6
20260503231516 18 352 0.0 0.0 0.00 0.00 0.00 51 1014.5
20260503230020 19 352 0.0 1.6 0.00 0.00 0.00 45 1014.5
20260503224522 20 352 0.0 1.6 0.00 0.00 0.00 49 1014.5
20260503223035 20 352 0.0 3.2 0.00 0.00 0.00 42 1014.5
20260503221509 21 352 0.0 1.6 0.00 0.00 0.00 40 1014.7
20260503220016 21 352 0.0 4.8 0.00 0.00 0.00 39 1014.8
20260503214524 21 352 0.0 3.2 0.00 0.00 0.00 39 1014.9
20260503213024 21 352 1.6 6.4 0.00 0.00 0.00 41 1015.1
20260503211523 22 352 0.0 6.4 0.00 0.00 0.00 37 1015.4
20260503210012 22 352 1.6 6.4 0.00 0.00 0.00 35 1015.6
20260503204518 23 352 0.0 6.4 0.00 0.00 0.00 38 1015.6
20260503203029 23 352 0.0 6.4 0.00 0.00 0.00 34 1015.8
20260503201532 24 352 1.6 6.4 0.00 0.00 0.00 36 1015.9
20260503200026 24 352 1.6 4.8 0.00 0.00 0.00 31 1016.6
20260503194515 25 352 1.6 4.8 0.00 0.00 0.00 37 1016.8
20260503193020 23 352 1.6 8.0 0.00 0.00 0.00 35 1017.1